Location: JKWMA (FRAC)
(33.1803°N, 84.5512°W)
Time: 20:01:51
(UTC-04:00)

Tiangong 2 - Visible Passes

Search period start: 20 March 2019 00:00
Search period end: 30 March 2019 00:00
Orbit: 379 x 390 km, 42.8° (Epoch: 20 March)

Date Brightness Start Highest point End Pass type
(mag) Time Alt. Az. Time Alt. Az. Time Alt. Az.
20 Mar 3.9 05:40:31 15° NNE 05:40:31 15° NNE 05:41:51 10° NE visible
20 Mar 2.1 07:14:00 10° NW 07:17:03 44° NNE 07:20:07 10° E visible
21 Mar 2.9 06:16:09 20° NNW 06:17:28 27° NNE 06:20:15 10° E visible
22 Mar 4.5 05:19:39 13° NE 05:19:39 13° NE 05:20:13 10° ENE visible
22 Mar 1.1 06:51:53 11° WNW 06:54:51 85° NNE 06:58:02 10° ESE visible
23 Mar 2.1 05:55:32 43° NE 05:55:32 43° NE 05:58:23 10° E visible
24 Mar 1.4 06:31:34 32° W 06:32:33 44° SW 06:35:35 10° SE visible
25 Mar 3.8 05:35:32 16° ESE 05:35:32 16° ESE 05:36:14 10° ESE visible
25 Mar 3.4 07:08:43 10° SW 07:09:27 11° SW 07:10:11 10° SSW visible
26 Mar 3.4 06:11:56 14° S 06:11:56 14° S 06:12:37 10° SSE visible
27 Mar 3.9 21:39:34 10° SW 21:39:44 11° SSW 21:39:44 11° SSW visible
28 Mar 2.7 20:40:49 10° S 20:43:06 19° SE 20:44:01 17° ESE visible
29 Mar 0.9 21:16:56 10° WSW 21:20:04 84° SE 21:20:22 69° ENE visible
